Theta_e
326 325 325 325 324 324 323 322 322 322 322 322 322 324 324 325 324 324 316 325 337 358 359 354 350 350 349 344 346 345 329 318 320 321 323 330 326 329 332 329 331 331 332 336 339
326 326 325 325 324 324 323 322 322 322 322 322 323 324 324 325 324 316 320 351 354 357 352 347 344 347 343 340 341 334 323 322 328 328 327 330 329 328 327 327 328 330 334 337 339
326 325 324 324 324 323 323 322 322 321 321 321 322 324 324 326 323 318 342 354 355 354 352 351 348 346 338 338 338 331 323 328 328 331 331 329 329 332 327 324 328 327 330 335 337
325 324 323 324 324 324 323 322 322 321 320 321 322 324 325 328 313 323 349 356 356 351 345 346 343 337 332 331 336 326 330 331 330 332 331 329 333 331 327 328 333 333 336 338 338
324 323 323 322 322 322 322 322 321 320 320 320 322 324 325 322 320 327 354 352 341 338 342 339 338 336 330 332 334 329 330 332 332 332 332 333 331 330 327 332 336 336 336 338 338
323 323 322 322 322 321 321 321 320 320 320 321 323 323 324 316 329 330 335 337 340 339 338 338 334 335 336 333 328 332 332 331 332 331 332 330 331 332 331 333 334 335 335 337 339
322 321 322 322 321 321 321 320 320 320 321 322 324 324 322 320 330 331 332 331 329 331 327 336 333 329 337 332 337 334 326 329 331 332 331 333 327 329 334 333 332 334 335 336 339
322 322 322 321 321 320 319 318 319 321 322 324 324 325 319 328 332 326 326 323 323 326 328 336 331 329 337 338 332 328 329 320 329 331 331 331 317 332 335 333 330 331 333 334 338
321 321 321 320 320 319 318 318 321 323 324 325 326 324 316 323 322 325 324 319 321 324 331 330 327 328 332 329 324 325 318 317 322 331 330 328 323 332 336 334 331 330 331 333 336
320 320 320 320 318 318 318 319 322 322 324 328 325 319 320 316 322 323 323 319 318 322 327 323 322 321 325 326 311 317 318 320 321 326 329 327 326 332 334 335 332 331 331 333 334
319 319 319 318 318 317 320 326 323 320 320 317 315 317 317 320 323 320 322 318 319 321 319 322 316 314 318 322 324 323 321 319 322 328 326 322 326 330 334 334 332 331 331 332 334
318 318 318 317 317 317 320 322 319 321 314 316 317 318 320 320 314 319 322 315 315 313 320 316 311 318 321 320 321 322 320 320 323 327 325 324 323 329 333 333 334 333 332 332 332
317 317 317 316 315 318 324 321 325 323 315 314 316 316 317 319 314 317 320 317 313 314 315 313 314 318 316 317 317 317 316 316 315 322 324 323 320 326 331 334 336 336 335 336 333
317 317 316 314 315 327 321 325 326 324 312 310 311 315 317 318 313 321 322 318 314 312 316 313 317 314 314 314 318 314 320 319 316 316 312 324 313 323 328 330 333 335 336 335 335
316 316 315 314 327 321 324 327 325 322 303 312 312 322 319 315 316 316 322 318 312 311 314 311 311 312 309 311 316 314 318 318 318 316 315 315 311 319 326 323 328 333 335 336 339
316 315 315 323 329 328 327 327 321 308 302 309 313 311 312 314 314 317 317 319 317 312 313 313 315 312 312 313 313 315 314 316 317 315 309 314 312 313 320 326 329 332 335 338 339
314 314 316 327 327 328 327 321 308 304 314 309 309 312 311 310 311 313 312 310 308 305 306 309 310 312 312 309 312 311 309 305 306 307 306 315 313 315 325 328 330 332 335 339 341
312 312 321 328 332 327 324 314 304 310 310 313 310 311 308 312 310 310 311 309 312 311 308 305 303 309 312 309 308 308 308 304 301 304 307 315 310 317 329 332 335 336 339 342 341
311 330 330 330 330 327 318 308 309 312 313 310 309 307 308 311 310 310 310 310 312 313 307 307 306 312 313 313 311 309 306 311 307 309 306 311 316 325 328 328 330 334 336 336 335
323 327 328 329 327 322 313 305 312 313 313 312 308 309 306 308 307 309 309 312 311 314 315 310 304 312 312 312 312 310 313 305 306 299 299 305 308 312 322 324 330 330 333 335 338
323 320 326 327 324 316 308 312 315 316 314 311 310 310 310 310 309 308 309 312 312 313 315 312 308 309 310 307 307 308 307 309 309 307 301 301 306 319 323 325 328 331 337 338 338
321 313 329 327 313 314 311 314 306 312 314 313 313 313 312 311 310 309 309 311 314 314 309 313 309 305 307 312 313 312 310 309 304 304 307 306 308 323 327 330 328 334 339 342 343
314 314 327 325 308 311 315 313 313 311 312 311 311 314 315 311 309 310 311 315 313 311 311 312 307 302 305 309 311 308 310 311 310 309 306 303 306 327 329 331 332 334 339 343 345
314 309 319 321 318 313 312 313 312 315 313 314 313 315 312 311 314 310 311 313 313 312 321 315 308 306 302 307 310 306 307 309 309 305 306 307 311 323 326 327 332 336 339 343 345
314 311 317 310 314 315 315 312 311 311 316 315 313 313 313 309 310 310 311 313 312 315 311 310 305 308 308 309 309 308 308 307 307 308 305 308 309 314 323 326 331 337 340 342 344
308 310 318 314 313 312 309 310 310 312 313 312 312 313 315 311 312 310 313 313 311 313 310 311 305 307 305 308 308 306 308 308 308 309 309 309 309 316 321 328 331 337 339 340 340
316 317 313 305 306 307 309 310 309 313 315 316 314 312 311 312 317 318 318 316 316 313 311 311 308 306 302 307 307 303 307 308 308 310 309 306 311 316 316 322 330 336 338 339 339
Wind_Speed
12 12 12 12 13 12 13 13 13 13 12 12 12 11 11 12 14 9 7 6 2 13 9 7 8 9 5 10 8 8 7 10 21 15 14 11 17 17 14 11 4 8 17 21 17
13 12 13 13 13 13 13 13 12 13 12 12 12 12 11 11 11 12 4 7 13 11 11 10 8 10 8 8 8 8 5 14 13 6 14 12 13 13 13 13 14 19 20 18 16
13 12 13 14 14 14 13 13 12 12 12 12 12 11 11 13 11 7 5 9 10 12 14 7 6 10 8 10 6 10 8 12 8 11 12 11 10 4 14 15 15 18 17 18 16
12 13 14 14 14 14 14 13 13 12 12 12 11 11 10 10 1 9 6 10 9 12 10 9 10 14 3 8 3 2 4 6 9 8 11 12 13 12 13 16 16 17 17 15 14
13 14 13 14 15 14 15 14 13 12 11 11 11 10 9 11 7 11 9 10 12 13 12 7 11 10 5 5 10 3 5 3 8 6 13 7 13 12 14 16 17 17 16 14 13
15 14 14 15 14 15 15 14 12 11 11 10 9 8 9 10 5 14 15 13 12 10 7 8 5 7 9 6 15 4 4 5 11 9 8 11 14 13 13 15 17 15 15 13 14
16 17 15 15 16 16 15 13 12 11 11 10 7 7 11 8 4 12 13 13 8 10 7 5 6 12 3 5 4 5 6 7 11 11 9 5 10 16 14 14 15 14 13 11 12
17 16 15 16 16 16 15 14 12 11 11 10 6 10 3 2 3 9 12 8 7 8 10 2 8 13 11 2 4 15 13 1 14 7 6 9 7 14 16 14 14 14 12 11 12
21 20 18 17 17 16 14 13 10 9 9 7 9 9 8 5 10 11 11 12 11 9 8 6 11 14 6 11 6 4 5 13 14 4 7 4 16 13 14 15 13 13 13 12 13
16 18 19 18 19 16 15 8 1 5 8 9 8 8 9 13 9 8 9 10 11 10 10 11 9 10 12 10 1 7 10 7 8 9 8 10 10 12 12 13 13 14 14 13 14
17 18 18 20 19 16 12 6 8 9 13 8 12 3 10 9 9 10 11 13 14 12 15 13 12 13 14 7 19 7 10 7 8 19 5 9 9 11 12 12 13 14 14 14 15
20 20 20 21 18 15 9 8 7 8 8 6 4 5 3 13 10 12 15 14 13 16 17 10 13 13 5 1 8 13 9 8 5 1 8 5 4 12 15 12 13 15 15 15 14
24 22 21 20 19 6 10 6 6 5 9 11 11 10 11 10 11 16 16 17 14 18 18 14 7 5 6 9 10 10 11 6 7 4 9 6 11 16 15 14 12 12 15 15 14
22 22 21 23 5 0 5 1 6 4 8 15 11 8 8 11 9 14 18 11 12 17 15 14 12 7 9 13 11 14 12 7 7 9 2 6 1 13 17 14 16 14 14 16 17
24 22 20 9 11 8 7 5 4 6 8 13 15 9 13 15 13 13 15 12 13 13 12 14 15 11 14 15 14 13 5 8 12 11 12 8 7 11 9 9 14 14 15 14 19
23 22 20 7 8 5 5 3 7 9 4 11 11 13 16 15 10 14 15 13 12 13 14 18 5 10 16 15 13 9 11 13 12 12 12 11 6 1 12 8 9 7 10 12 16
26 19 11 8 5 4 6 7 9 10 10 11 13 16 18 14 13 13 17 18 12 13 15 17 19 13 13 13 16 14 15 11 11 12 11 8 10 1 10 10 6 4 2 5 12
30 22 8 8 7 7 7 10 10 6 10 4 7 14 18 14 14 15 17 17 20 16 14 14 17 21 14 18 14 15 17 14 11 13 11 12 7 8 17 14 10 5 5 7 8
32 6 6 4 3 5 9 12 8 7 2 7 9 13 16 16 9 15 19 18 19 20 15 9 15 5 20 15 18 15 16 20 21 19 14 6 8 12 13 12 6 9 9 3 4
10 10 4 2 6 8 10 17 13 3 7 7 14 15 16 18 16 15 15 15 19 19 16 8 9 12 13 10 17 19 11 12 11 17 17 14 12 3 16 13 10 7 5 6 2
8 7 8 7 6 8 12 15 14 4 8 11 15 17 15 15 19 18 11 15 9 17 16 19 9 10 10 13 17 13 16 13 18 13 14 12 10 4 18 15 14 9 7 5 5
7 7 6 4 9 9 14 18 4 11 10 15 10 18 16 15 18 20 21 16 14 17 19 18 11 14 15 14 19 19 18 21 14 15 13 13 3 6 13 13 6 13 6 5 6
7 9 7 7 10 12 15 16 12 13 16 12 16 13 17 17 17 17 19 16 12 13 15 16 11 13 14 14 10 13 16 16 20 18 16 14 10 14 11 12 5 11 9 7 7
7 6 7 8 11 16 16 15 14 13 15 16 15 14 16 17 17 16 16 18 10 14 7 12 18 15 14 15 15 23 17 19 19 15 14 15 10 14 14 15 13 9 7 7 7
6 6 6 8 5 7 11 13 16 14 16 11 16 16 17 17 19 20 18 16 14 9 10 15 18 19 20 20 17 11 17 21 22 17 20 14 16 13 16 12 12 12 11 9 9
7 7 6 11 14 14 14 16 16 16 19 15 16 16 18 19 20 18 20 19 20 19 16 20 19 20 22 23 20 22 19 15 17 20 19 18 19 15 8 11 12 11 13 12 10
5 8 6 8 13 13 13 16 17 15 13 18 19 15 14 11 13 15 17 14 17 16 19 20 17 19 21 21 22 26 20 20 19 19 16 18 11 13 9 8 12 11 13 14 13
Wind_Direction
351 350 345 345 342 339 334 333 332 333 326 321 321 319 313 310 296 224 234 57 153 174 234 187 217 208 222 276 255 245 267 77 107 100 112 116 90 90 130 105 79 107 137 120 140
349 346 345 342 342 340 334 333 330 324 321 317 319 315 313 319 265 227 90 119 152 179 212 207 193 191 229 260 256 191 290 64 68 100 96 86 105 134 119 111 105 98 108 132 146
347 346 344 341 338 336 331 329 326 320 318 317 316 312 312 302 252 101 137 154 186 206 253 282 293 261 235 228 255 3 95 115 117 87 113 112 112 88 122 116 129 131 136 145 152
346 348 343 338 335 330 328 324 323 317 312 308 309 309 314 253 197 90 153 168 196 236 259 241 240 258 217 202 193 187 76 37 92 143 122 98 98 63 65 111 127 134 143 145 159
345 345 342 337 332 326 324 323 317 308 300 300 303 309 276 217 73 123 148 170 198 219 227 245 261 305 292 140 195 245 97 111 124 113 102 144 85 92 101 114 130 138 148 159 152
343 341 340 336 330 325 320 314 305 297 289 284 290 302 244 244 103 139 171 180 203 215 217 243 337 333 293 226 62 154 315 161 154 133 142 139 126 119 116 129 133 149 157 165 135
341 343 338 332 331 325 318 311 300 287 276 275 280 268 260 65 140 165 166 194 197 232 233 247 297 279 307 198 277 144 255 172 137 162 155 185 160 112 136 138 145 161 165 155 154
340 338 333 330 329 324 314 304 293 275 263 259 254 249 59 106 160 177 193 182 208 235 275 288 280 278 275 134 225 245 202 252 112 196 145 206 234 136 151 149 157 159 164 164 160
336 334 332 329 331 325 314 302 282 246 233 226 229 230 130 136 197 189 198 206 201 216 230 282 260 261 189 211 161 48 85 68 301 215 140 187 218 149 171 155 161 163 160 175 166
333 327 330 330 333 323 316 290 36 180 214 214 271 250 167 198 164 166 200 230 196 201 216 231 235 231 232 218 168 304 234 91 265 278 208 180 116 146 184 167 165 167 168 173 169
338 332 328 331 330 322 304 197 202 186 204 313 173 318 142 112 158 194 180 196 200 206 221 204 230 225 213 197 168 215 232 231 157 255 269 172 148 176 176 198 174 168 177 179 177
339 335 333 331 325 314 273 263 30 339 227 203 254 273 166 175 178 171 183 194 202 208 222 189 238 249 34 35 236 231 267 154 261 122 293 229 211 175 170 205 183 187 175 182 184
338 334 329 328 322 265 268 31 327 303 254 156 196 203 182 209 200 174 200 217 200 215 208 236 196 160 211 208 241 244 270 120 311 143 247 267 237 160 176 175 213 205 178 188 187
328 328 330 323 291 99 238 20 291 269 264 147 192 203 182 217 218 174 205 203 211 223 213 234 252 214 222 245 231 265 181 279 258 262 13 258 296 215 169 183 183 204 200 187 184
327 326 325 305 319 236 44 302 294 239 264 148 155 107 170 209 116 180 199 211 237 222 234 219 237 203 236 236 233 260 352 253 253 264 277 197 238 132 170 204 184 196 199 204 194
323 326 323 200 227 308 268 278 245 231 227 157 150 191 185 215 196 144 192 236 239 235 222 255 201 252 244 237 250 275 256 252 253 258 258 231 253 312 98 106 106 155 200 205 212
322 322 294 307 357 334 262 238 231 252 130 155 180 185 197 189 185 179 195 201 206 210 217 217 229 223 237 242 226 224 236 232 220 219 241 233 199 330 148 105 67 73 271 249 240
318 314 196 270 309 268 239 232 250 324 179 93 197 190 206 188 202 197 200 212 218 228 262 214 208 208 192 232 212 221 233 246 230 244 244 160 211 220 97 107 116 99 69 332 222
311 216 238 139 239 252 242 228 237 262 292 191 203 207 205 212 229 198 219 218 218 223 243 248 234 141 202 213 239 214 220 256 272 280 286 174 228 142 151 147 150 128 140 22 37
311 279 223 106 202 228 241 249 280 319 311 272 223 211 220 206 198 215 203 223 232 208 230 261 269 174 199 232 222 242 243 229 239 257 266 257 243 320 156 170 135 154 109 133 115
262 276 100 159 217 231 240 247 246 219 248 257 252 257 230 238 208 230 221 220 225 216 205 240 232 183 168 205 226 206 239 245 267 224 242 250 260 312 166 155 156 133 122 150 188
290 274 111 206 233 233 244 251 306 281 219 259 272 281 262 244 259 211 240 234 186 232 203 220 230 240 206 223 220 248 218 226 242 231 275 286 313 62 78 110 160 119 136 129 136
299 289 141 244 252 239 241 251 270 263 263 237 243 243 257 261 256 252 247 242 161 228 217 213 227 246 238 217 187 240 239 255 230 244 251 245 241 120 119 123 120 135 144 146 140
282 290 187 198 262 280 288 288 256 214 265 276 268 267 258 253 256 248 246 241 173 225 41 258 236 235 246 221 217 202 224 242 245 249 244 235 222 155 171 166 160 150 157 148 142
247 289 26 293 255 294 281 278 278 275 239 240 266 250 263 252 251 247 245 262 181 189 230 234 243 244 254 268 275 263 217 214 237 242 253 253 245 246 192 188 162 148 152 158 144
298 321 343 280 282 280 266 262 268 264 266 268 233 259 268 246 263 262 254 231 251 201 220 234 235 248 254 258 257 253 253 235 243 228 240 254 263 278 117 142 159 160 167 171 158
292 275 271 281 272 265 261 267 269 258 265 276 281 273 275 313 333 319 310 320 297 269 213 229 238 236 245 243 248 250 240 240 244 247 225 244 244 246 218 165 171 179 190 174 163